Time,TemperatureF,DewpointF,PressureIn,WindDirection,WindDirectionDegrees,WindSpeedMPH,WindSpeedGustMPH,Humidity,HourlyPrecipIn,Conditions,Clouds,dailyrainin,SoftwareType,DateUTC
2013-04-14 00:00:00,37.0,31.4,30.05,SE,131,0.0,1.0,80,0.00,,---,0.00,VWS V14.01,2013-04-14 04:00:00,
2013-04-14 00:01:00,37.0,31.4,30.05,SE,131,0.0,2.0,80,0.00,,---,0.00,VWS V14.01,2013-04-14 04:01:00,
2013-04-14 00:06:00,36.9,31.3,30.05,SE,131,0.0,2.0,80,0.00,,---,0.00,VWS V14.01,2013-04-14 04:06:00,
2013-04-14 00:11:00,36.9,31.3,30.05,SE,131,0.0,2.0,80,0.00,,---,0.00,VWS V14.01,2013-04-14 04:11:00,
2013-04-14 00:16:00,36.7,31.1,30.05,WSW,256,0.0,2.0,80,0.00,,---,0.00,VWS V14.01,2013-04-14 04:16:00,
2013-04-14 00:22:00,36.6,31.0,30.06,WSW,256,0.0,2.0,80,0.00,,---,0.00,VWS V14.01,2013-04-14 04:22:00,
2013-04-14 00:27:00,36.4,30.8,30.06,WSW,256,0.0,2.0,80,0.00,,---,0.00,VWS V14.01,2013-04-14 04:27:00,
2013-04-14 00:30:00,36.4,30.8,30.06,WSW,256,0.0,2.0,80,0.00,,---,0.00,VWS V14.01,2013-04-14 04:30:00,
2013-04-14 00:32:00,36.2,30.6,30.06,West,276,0.0,2.0,80,0.00,,---,0.00,VWS V14.01,2013-04-14 04:32:00,
2013-04-14 00:37:00,36.1,30.5,30.06,SW,227,0.0,3.0,80,0.00,,---,0.00,VWS V14.01,2013-04-14 04:37:00,
2013-04-14 00:42:00,36.1,30.5,30.06,SW,227,1.0,3.0,80,0.00,,---,0.00,VWS V14.01,2013-04-14 04:42:00,
2013-04-14 00:47:00,36.0,30.4,30.06,SSW,192,2.0,3.0,80,0.00,,---,0.00,VWS V14.01,2013-04-14 04:47:00,
2013-04-14 00:52:00,36.0,30.4,30.06,SSW,192,0.0,3.0,80,0.00,,---,0.00,VWS V14.01,2013-04-14 04:52:00,
2013-04-14 00:57:00,35.9,30.3,30.06,SSW,192,0.0,3.0,80,0.00,,---,0.00,VWS V14.01,2013-04-14 04:57:00,
2013-04-14 01:00:00,35.9,30.3,30.06,SSW,192,0.0,3.0,80,0.00,,---,0.00,VWS V14.01,2013-04-14 05:00:00,
2013-04-14 01:02:00,35.8,30.2,30.06,SSW,192,0.0,1.0,80,0.00,,---,0.00,VWS V14.01,2013-04-14 05:02:00,
2013-04-14 01:07:00,35.7,30.5,30.06,SSW,192,0.0,2.0,81,0.00,,---,0.00,VWS V14.01,2013-04-14 05:07:00,
2013-04-14 01:12:00,35.6,30.4,30.06,SSW,192,0.0,2.0,81,0.00,,---,0.00,VWS V14.01,2013-04-14 05:12:00,
2013-04-14 01:17:00,35.6,30.4,30.06,SSW,192,2.0,2.0,81,0.00,,---,0.00,VWS V14.01,2013-04-14 05:17:00,
2013-04-14 01:22:00,35.5,30.6,30.06,SSW,192,0.0,2.0,82,0.00,,---,0.00,VWS V14.01,2013-04-14 05:22:00,
2013-04-14 01:27:00,35.5,30.6,30.06,SSW,192,0.0,3.0,82,0.00,,---,0.00,VWS V14.01,2013-04-14 05:27:00,
2013-04-14 01:30:00,35.5,30.6,30.06,SSW,192,0.0,3.0,82,0.00,,---,0.00,VWS V14.01,2013-04-14 05:30:00,
2013-04-14 01:32:00,35.4,30.5,30.06,SSW,192,0.0,1.0,82,0.00,,---,0.00,VWS V14.01,2013-04-14 05:32:00,
2013-04-14 01:37:00,35.4,30.5,30.06,SSW,192,0.0,1.0,82,0.00,,---,0.00,VWS V14.01,2013-04-14 05:37:00,
2013-04-14 01:42:00,35.3,30.4,30.06,SSW,192,0.0,1.0,82,0.00,,---,0.00,VWS V14.01,2013-04-14 05:42:00,
2013-04-14 01:47:00,35.2,30.6,30.06,SSW,192,0.0,1.0,83,0.00,,---,0.00,VWS V14.01,2013-04-14 05:47:00,
2013-04-14 01:52:00,35.1,30.2,30.06,SSW,192,0.0,1.0,82,0.00,,---,0.00,VWS V14.01,2013-04-14 05:52:00,
2013-04-14 01:57:00,34.9,30.0,30.06,SSW,192,0.0,1.0,82,0.00,,---,0.00,VWS V14.01,2013-04-14 05:57:00,
2013-04-14 02:00:00,34.9,30.0,30.06,SSW,192,0.0,1.0,82,0.00,,---,0.00,VWS V14.01,2013-04-14 06:00:00,
2013-04-14 02:02:00,34.7,29.8,30.06,SSW,192,0.0,0.0,82,0.00,,---,0.00,VWS V14.01,2013-04-14 06:02:00,
2013-04-14 02:07:00,34.4,29.5,30.06,SSW,192,0.0,0.0,82,0.00,,---,0.00,VWS V14.01,2013-04-14 06:07:00,
2013-04-14 02:12:00,34.2,29.3,30.06,SSW,192,0.0,0.0,82,0.00,,---,0.00,VWS V14.01,2013-04-14 06:12:00,
2013-04-14 02:17:00,33.8,29.5,30.06,SSW,192,0.0,2.0,84,0.00,,---,0.00,VWS V14.01,2013-04-14 06:17:00,
2013-04-14 02:22:00,33.4,29.4,30.06,SSW,192,0.0,2.0,85,0.00,,---,0.00,VWS V14.01,2013-04-14 06:22:00,
2013-04-14 02:27:00,33.3,29.6,30.06,SSW,192,0.0,0.0,86,0.00,,---,0.00,VWS V14.01,2013-04-14 06:27:00,
2013-04-14 02:30:00,33.3,29.6,30.06,SSW,192,0.0,2.0,86,0.00,,---,0.00,VWS V14.01,2013-04-14 06:30:00,
2013-04-14 02:32:00,33.1,29.4,30.06,SSW,192,0.0,0.0,86,0.00,,---,0.00,VWS V14.01,2013-04-14 06:32:00,
2013-04-14 02:37:00,32.9,29.5,30.06,SSW,192,0.0,0.0,87,0.00,,---,0.00,VWS V14.01,2013-04-14 06:37:00,
2013-04-14 02:42:00,32.8,29.6,30.06,SSW,192,0.0,0.0,88,0.00,,---,0.00,VWS V14.01,2013-04-14 06:42:00,
2013-04-14 02:47:00,32.8,29.6,30.06,SSW,192,0.0,0.0,88,0.00,,---,0.00,VWS V14.01,2013-04-14 06:47:00,
2013-04-14 02:52:00,32.7,29.5,30.06,SSW,192,0.0,0.0,88,0.00,,---,0.00,VWS V14.01,2013-04-14 06:52:00,
2013-04-14 02:57:00,32.7,29.8,30.06,SSW,192,0.0,0.0,89,0.00,,---,0.00,VWS V14.01,2013-04-14 06:57:00,
2013-04-14 03:00:00,32.7,29.8,30.06,SSW,192,0.0,0.0,89,0.00,,---,0.00,VWS V14.01,2013-04-14 07:00:00,
2013-04-14 03:02:00,32.7,29.8,30.06,SSW,192,0.0,0.0,89,0.00,,---,0.00,VWS V14.01,2013-04-14 07:02:00,
2013-04-14 03:07:00,32.8,30.2,30.06,SSW,192,0.0,0.0,90,0.00,,---,0.00,VWS V14.01,2013-04-14 07:07:00,
2013-04-14 03:12:00,32.9,30.3,30.06,SSW,192,0.0,0.0,90,0.00,,---,0.00,VWS V14.01,2013-04-14 07:12:00,
2013-04-14 03:17:00,33.1,30.5,30.06,SSW,192,0.0,0.0,90,0.00,,---,0.00,VWS V14.01,2013-04-14 07:17:00,
2013-04-14 03:22:00,33.2,30.6,30.06,SSW,192,0.0,0.0,90,0.00,,---,0.00,VWS V14.01,2013-04-14 07:22:00,
2013-04-14 03:27:00,33.4,30.8,30.05,SSW,192,0.0,0.0,90,0.00,,---,0.00,VWS V14.01,2013-04-14 07:27:00,
2013-04-14 03:30:00,33.4,30.8,30.05,SSW,192,0.0,0.0,90,0.00,,---,0.00,VWS V14.01,2013-04-14 07:30:00,
2013-04-14 03:32:00,33.7,31.1,30.05,SSW,192,0.0,1.0,90,0.00,,---,0.00,VWS V14.01,2013-04-14 07:32:00,
2013-04-14 03:37:00,33.8,30.9,30.05,SSW,192,0.0,1.0,89,0.00,,---,0.00,VWS V14.01,2013-04-14 07:37:00,
2013-04-14 03:42:00,33.9,30.7,30.05,SSW,192,0.0,1.0,88,0.00,,---,0.00,VWS V14.01,2013-04-14 07:42:00,
2013-04-14 03:48:00,33.9,30.5,30.06,SSW,192,0.0,1.0,87,0.00,,---,0.00,VWS V14.01,2013-04-14 07:48:00,
2013-04-14 03:53:00,33.9,30.5,30.06,SSW,192,0.0,1.0,87,0.00,,---,0.00,VWS V14.01,2013-04-14 07:53:00,
2013-04-14 03:58:00,33.9,30.5,30.06,SSW,192,0.0,0.0,87,0.00,,---,0.00,VWS V14.01,2013-04-14 07:58:00,
2013-04-14 04:00:00,33.8,30.4,30.06,SSW,192,0.0,1.0,87,0.00,,---,0.00,VWS V14.01,2013-04-14 08:00:00,
2013-04-14 04:03:00,33.8,30.4,30.06,SSW,192,0.0,0.0,87,0.00,,---,0.00,VWS V14.01,2013-04-14 08:03:00,
2013-04-14 04:08:00,33.8,30.6,30.06,SSW,192,0.0,0.0,88,0.00,,---,0.00,VWS V14.01,2013-04-14 08:08:00,
2013-04-14 04:13:00,33.8,30.9,30.06,SSW,192,0.0,0.0,89,0.00,,---,0.00,VWS V14.01,2013-04-14 08:13:00,
2013-04-14 04:18:00,33.8,30.6,30.06,SSW,192,0.0,0.0,88,0.00,,---,0.00,VWS V14.01,2013-04-14 08:18:00,
2013-04-14 04:23:00,33.7,30.5,30.06,SSW,192,0.0,0.0,88,0.00,,---,0.00,VWS V14.01,2013-04-14 08:23:00,
2013-04-14 04:28:00,33.6,30.7,30.07,SSW,192,0.0,0.0,89,0.00,,---,0.00,VWS V14.01,2013-04-14 08:28:00,
2013-04-14 04:30:00,33.6,30.7,30.06,SSW,192,0.0,0.0,89,0.00,,---,0.00,VWS V14.01,2013-04-14 08:30:00,
2013-04-14 04:33:00,33.5,30.6,30.07,SSW,192,0.0,0.0,89,0.00,,---,0.00,VWS V14.01,2013-04-14 08:33:00,
2013-04-14 04:38:00,33.5,30.9,30.07,SSW,192,0.0,0.0,90,0.00,,---,0.00,VWS V14.01,2013-04-14 08:38:00,
2013-04-14 04:43:00,33.4,30.5,30.07,SSW,192,0.0,0.0,89,0.00,,---,0.00,VWS V14.01,2013-04-14 08:43:00,
2013-04-14 04:48:00,33.4,30.8,30.07,SSW,192,0.0,1.0,90,0.00,,---,0.00,VWS V14.01,2013-04-14 08:48:00,
2013-04-14 04:53:00,33.3,30.7,30.08,SSW,192,0.0,1.0,90,0.00,,---,0.00,VWS V14.01,2013-04-14 08:53:00,
2013-04-14 04:58:00,33.2,30.6,30.08,SSW,192,0.0,0.0,90,0.00,,---,0.00,VWS V14.01,2013-04-14 08:58:00,
2013-04-14 05:00:00,33.2,30.6,30.08,SSW,192,0.0,1.0,90,0.00,,---,0.00,VWS V14.01,2013-04-14 09:00:00,
2013-04-14 05:03:00,33.1,30.8,30.08,SSW,192,0.0,0.0,91,0.00,,---,0.00,VWS V14.01,2013-04-14 09:03:00,
2013-04-14 05:08:00,33.0,30.7,30.08,SSW,192,0.0,0.0,91,0.00,,---,0.00,VWS V14.01,2013-04-14 09:08:00,
2013-04-14 05:13:00,32.9,30.6,30.08,SSW,192,0.0,0.0,91,0.00,,---,0.00,VWS V14.01,2013-04-14 09:13:00,
2013-04-14 05:18:00,32.7,30.1,30.08,SSW,192,0.0,0.0,90,0.00,,---,0.00,VWS V14.01,2013-04-14 09:18:00,
2013-04-14 05:23:00,32.6,30.3,30.08,SSW,192,0.0,0.0,91,0.00,,---,0.00,VWS V14.01,2013-04-14 09:23:00,
2013-04-14 05:28:00,32.4,30.1,30.09,SSW,192,0.0,0.0,91,0.00,,---,0.00,VWS V14.01,2013-04-14 09:28:00,
2013-04-14 05:30:00,32.4,29.8,30.08,SSW,192,0.0,0.0,90,0.00,,---,0.00,VWS V14.01,2013-04-14 09:30:00,
2013-04-14 05:33:00,32.2,29.6,30.09,SSW,192,0.0,0.0,90,0.00,,---,0.00,VWS V14.01,2013-04-14 09:33:00,
2013-04-14 05:38:00,32.0,29.7,30.09,SSW,192,0.0,0.0,91,0.00,,---,0.00,VWS V14.01,2013-04-14 09:38:00,
2013-04-14 05:43:00,31.8,29.5,30.09,SSW,192,0.0,0.0,91,0.00,,---,0.00,VWS V14.01,2013-04-14 09:43:00,
2013-04-14 05:48:00,31.6,29.3,30.09,SSW,192,0.0,0.0,91,0.00,,---,0.00,VWS V14.01,2013-04-14 09:48:00,
2013-04-14 05:53:00,31.5,29.2,30.09,SSW,192,0.0,0.0,91,0.00,,---,0.00,VWS V14.01,2013-04-14 09:53:00,
2013-04-14 05:58:00,31.4,29.1,30.10,SSW,192,0.0,0.0,91,0.00,,---,0.00,VWS V14.01,2013-04-14 09:58:00,
2013-04-14 06:00:00,31.4,29.1,30.10,SSW,192,0.0,0.0,91,0.00,,---,0.00,VWS V14.01,2013-04-14 10:00:00,
2013-04-14 06:03:00,31.2,28.9,30.10,SSW,192,0.0,0.0,91,0.00,,---,0.00,VWS V14.01,2013-04-14 10:03:00,
2013-04-14 06:08:00,31.2,29.1,30.10,SSW,192,0.0,0.0,92,0.00,,---,0.00,VWS V14.01,2013-04-14 10:08:00,
2013-04-14 06:13:00,31.2,29.1,30.10,SSW,192,0.0,1.0,92,0.00,,---,0.00,VWS V14.01,2013-04-14 10:13:00,
2013-04-14 06:18:00,31.1,29.0,30.10,SSW,192,0.0,2.0,92,0.00,,---,0.00,VWS V14.01,2013-04-14 10:18:00,
2013-04-14 06:23:00,31.1,29.0,30.10,SSW,192,0.0,2.0,92,0.00,,---,0.00,VWS V14.01,2013-04-14 10:23:00,
2013-04-14 06:28:00,31.0,29.0,30.11,SSW,192,0.0,0.0,92,0.00,,---,0.00,VWS V14.01,2013-04-14 10:28:00,
2013-04-14 06:30:00,31.0,29.0,30.11,SSW,192,0.0,2.0,92,0.00,,---,0.00,VWS V14.01,2013-04-14 10:30:00,
2013-04-14 06:33:00,30.9,28.9,30.11,SSW,192,0.0,0.0,92,0.00,,---,0.00,VWS V14.01,2013-04-14 10:33:00,
2013-04-14 06:38:00,30.9,28.9,30.11,SSW,192,0.0,1.0,92,0.00,,---,0.00,VWS V14.01,2013-04-14 10:38:00,
2013-04-14 06:44:00,30.9,28.9,30.11,SSW,192,0.0,1.0,92,0.00,,---,0.00,VWS V14.01,2013-04-14 10:44:00,
2013-04-14 06:49:00,31.0,29.2,30.11,SSW,192,0.0,1.0,93,0.00,,---,0.00,VWS V14.01,2013-04-14 10:49:00,
2013-04-14 06:54:00,31.0,29.2,30.11,SSW,192,0.0,1.0,93,0.00,,---,0.00,VWS V14.01,2013-04-14 10:54:00,
2013-04-14 06:59:00,31.2,29.4,30.12,SSW,192,0.0,0.0,93,0.00,,---,0.00,VWS V14.01,2013-04-14 10:59:00,
2013-04-14 07:00:00,31.1,29.3,30.12,SSW,192,0.0,1.0,93,0.00,,---,0.00,VWS V14.01,2013-04-14 11:00:00,
2013-04-14 07:04:00,31.2,29.4,30.12,SSW,192,0.0,0.0,93,0.00,,---,0.00,VWS V14.01,2013-04-14 11:04:00,
2013-04-14 07:09:00,31.5,29.7,30.12,SSW,192,0.0,1.0,93,0.00,,---,0.00,VWS V14.01,2013-04-14 11:09:00,
2013-04-14 07:14:00,31.9,30.4,30.12,SSW,192,0.0,1.0,94,0.00,,---,0.00,VWS V14.01,2013-04-14 11:14:00,
2013-04-14 07:19:00,32.3,30.8,30.12,SSW,192,0.0,1.0,94,0.00,,---,0.00,VWS V14.01,2013-04-14 11:19:00,
2013-04-14 07:24:00,32.5,30.7,30.12,SSW,192,0.0,1.0,93,0.00,,---,0.00,VWS V14.01,2013-04-14 11:24:00,
2013-04-14 07:29:00,32.9,31.1,30.12,SSW,192,0.0,0.0,93,0.00,,---,0.00,VWS V14.01,2013-04-14 11:29:00,
2013-04-14 07:30:00,32.8,31.0,30.12,SSW,192,0.0,1.0,93,0.00,,---,0.00,VWS V14.01,2013-04-14 11:30:00,
2013-04-14 07:34:00,33.3,31.5,30.12,SSW,192,0.0,1.0,93,0.00,,---,0.00,VWS V14.01,2013-04-14 11:34:00,
2013-04-14 07:39:00,34.1,32.0,30.13,SW,215,3.0,3.0,92,0.00,,---,0.00,VWS V14.01,2013-04-14 11:39:00,
2013-04-14 07:44:00,34.7,32.1,30.13,SW,219,1.0,3.0,90,0.00,,---,0.00,VWS V14.01,2013-04-14 11:44:00,
2013-04-14 07:49:00,35.0,32.1,30.13,SW,222,0.0,3.0,89,0.00,,---,0.00,VWS V14.01,2013-04-14 11:49:00,
2013-04-14 07:54:00,35.1,32.2,30.14,SW,222,0.0,3.0,89,0.00,,---,0.00,VWS V14.01,2013-04-14 11:54:00,
2013-04-14 07:59:00,35.2,32.0,30.13,SW,222,1.0,2.0,88,0.00,,---,0.00,VWS V14.01,2013-04-14 11:59:00,
2013-04-14 08:00:00,35.1,31.9,30.13,SW,222,2.0,3.0,88,0.00,,---,0.00,VWS V14.01,2013-04-14 12:00:00,
2013-04-14 08:04:00,35.3,32.1,30.14,SW,222,0.0,2.0,88,0.00,,---,0.00,VWS V14.01,2013-04-14 12:04:00,
2013-04-14 08:09:00,35.5,32.3,30.13,SW,222,0.0,2.0,88,0.00,,---,0.00,VWS V14.01,2013-04-14 12:09:00,
2013-04-14 08:14:00,35.7,32.2,30.14,SW,222,0.0,2.0,87,0.00,,---,0.00,VWS V14.01,2013-04-14 12:14:00,
2013-04-14 08:19:00,35.8,32.3,30.13,SW,222,0.0,2.0,87,0.00,,---,0.00,VWS V14.01,2013-04-14 12:19:00,
2013-04-14 08:24:00,36.0,32.5,30.13,SW,222,1.0,2.0,87,0.00,,---,0.00,VWS V14.01,2013-04-14 12:24:00,
2013-04-14 08:29:00,36.2,33.0,30.13,SW,222,0.0,0.0,88,0.00,,---,0.00,VWS V14.01,2013-04-14 12:29:00,
2013-04-14 08:30:00,36.1,32.9,30.13,SW,222,0.0,2.0,88,0.00,,---,0.00,VWS V14.01,2013-04-14 12:30:00,
2013-04-14 08:34:00,36.3,33.1,30.13,SW,222,0.0,0.0,88,0.00,,---,0.00,VWS V14.01,2013-04-14 12:34:00,
2013-04-14 08:39:00,36.5,33.3,30.13,SW,222,0.0,1.0,88,0.00,,---,0.00,VWS V14.01,2013-04-14 12:39:00,
2013-04-14 08:44:00,36.8,33.6,30.13,SW,222,0.0,1.0,88,0.00,,---,0.00,VWS V14.01,2013-04-14 12:44:00,
2013-04-14 08:49:00,37.1,33.3,30.12,SW,222,0.0,2.0,86,0.00,,---,0.00,VWS V14.01,2013-04-14 12:49:00,
2013-04-14 08:54:00,37.4,33.0,30.13,South,180,0.0,3.0,84,0.00,,---,0.00,VWS V14.01,2013-04-14 12:54:00,
2013-04-14 08:59:00,37.8,33.4,30.13,South,180,0.0,0.0,84,0.00,,---,0.00,VWS V14.01,2013-04-14 12:59:00,
2013-04-14 09:00:00,37.7,33.6,30.13,South,180,0.0,3.0,85,0.00,,---,0.00,VWS V14.01,2013-04-14 13:00:00,
2013-04-14 09:04:00,38.2,33.8,30.14,South,187,2.0,3.0,84,0.00,,---,0.00,VWS V14.01,2013-04-14 13:04:00,
2013-04-14 09:09:00,38.4,33.1,30.14,South,191,0.0,6.0,81,0.00,,---,0.00,VWS V14.01,2013-04-14 13:09:00,
2013-04-14 09:14:00,38.8,33.8,30.14,South,191,3.0,6.0,82,0.00,,---,0.00,VWS V14.01,2013-04-14 13:14:00,
2013-04-14 09:19:00,39.0,33.7,30.15,SSE,164,2.0,6.0,81,0.00,,---,0.00,VWS V14.01,2013-04-14 13:19:00,
2013-04-14 09:24:00,39.2,33.6,30.15,SSW,199,2.0,6.0,80,0.00,,---,0.00,VWS V14.01,2013-04-14 13:24:00,
2013-04-14 09:29:00,39.3,33.7,30.15,SSW,199,0.0,3.0,80,0.00,,---,0.00,VWS V14.01,2013-04-14 13:29:00,
2013-04-14 09:30:00,39.2,33.6,30.15,SSW,199,0.0,6.0,80,0.00,,---,0.00,VWS V14.01,2013-04-14 13:30:00,
2013-04-14 09:34:00,39.4,33.4,30.15,SSW,203,2.0,4.0,79,0.00,,---,0.00,VWS V14.01,2013-04-14 13:34:00,
2013-04-14 09:39:00,39.5,33.5,30.15,SSW,202,2.0,4.0,79,0.00,,---,0.00,VWS V14.01,2013-04-14 13:39:00,
2013-04-14 09:44:00,39.6,34.0,30.16,SSW,202,0.0,4.0,80,0.00,,---,0.00,VWS V14.01,2013-04-14 13:44:00,
2013-04-14 09:49:00,39.8,34.5,30.16,SSW,202,0.0,4.0,81,0.00,,---,0.00,VWS V14.01,2013-04-14 13:49:00,
2013-04-14 09:54:00,39.9,34.5,30.16,SE,144,0.0,4.0,81,0.00,,---,0.00,VWS V14.01,2013-04-14 13:54:00,
2013-04-14 09:59:00,40.0,34.3,30.16,SE,144,0.0,0.0,80,0.00,,---,0.00,VWS V14.01,2013-04-14 13:59:00,
2013-04-14 10:00:00,39.9,34.2,30.16,SE,144,0.0,4.0,80,0.00,,---,0.00,VWS V14.01,2013-04-14 14:00:00,
2013-04-14 10:04:00,40.0,34.3,30.17,South,189,0.0,3.0,80,0.00,,---,0.00,VWS V14.01,2013-04-14 14:04:00,
2013-04-14 10:09:00,40.1,34.1,30.17,SSE,159,1.0,6.0,79,0.00,,---,0.00,VWS V14.01,2013-04-14 14:09:00,
2013-04-14 10:14:00,40.2,33.9,30.18,SSW,199,3.0,6.0,78,0.00,,---,0.00,VWS V14.01,2013-04-14 14:14:00,
2013-04-14 10:19:00,40.3,34.0,30.17,SSW,194,0.0,6.0,78,0.00,,---,0.00,VWS V14.01,2013-04-14 14:19:00,
2013-04-14 10:24:00,40.4,34.1,30.17,South,175,0.0,6.0,78,0.00,,---,0.00,VWS V14.01,2013-04-14 14:24:00,
2013-04-14 10:29:00,40.5,34.2,30.18,South,175,0.0,2.0,78,0.00,,---,0.00,VWS V14.01,2013-04-14 14:29:00,
2013-04-14 10:30:00,40.5,34.2,30.17,South,175,2.0,6.0,78,0.00,,---,0.00,VWS V14.01,2013-04-14 14:30:00,
2013-04-14 10:34:00,40.6,34.3,30.18,SSW,193,0.0,2.0,78,0.00,,---,0.00,VWS V14.01,2013-04-14 14:34:00,
2013-04-14 10:39:00,40.7,34.4,30.17,SSW,193,0.0,2.0,78,0.00,,---,0.00,VWS V14.01,2013-04-14 14:39:00,
2013-04-14 10:44:00,40.7,34.4,30.17,SSW,193,0.0,2.0,78,0.00,,---,0.00,VWS V14.01,2013-04-14 14:44:00,
2013-04-14 10:49:00,40.9,34.6,30.16,SSW,192,0.0,3.0,78,0.00,,---,0.00,VWS V14.01,2013-04-14 14:49:00,
2013-04-14 10:54:00,40.9,34.6,30.17,SSE,152,0.0,3.0,78,0.00,,---,0.00,VWS V14.01,2013-04-14 14:54:00,
2013-04-14 10:59:00,41.0,34.7,30.17,SSE,152,0.0,0.0,78,0.00,,---,0.00,VWS V14.01,2013-04-14 14:59:00,
2013-04-14 11:00:00,40.9,34.6,30.17,SSE,152,0.0,3.0,78,0.00,,---,0.00,VWS V14.01,2013-04-14 15:00:00,
2013-04-14 11:04:00,41.1,34.8,30.17,SSE,152,0.0,1.0,78,0.00,,---,0.00,VWS V14.01,2013-04-14 15:04:00,
2013-04-14 11:09:00,41.1,34.8,30.16,SSE,152,0.0,2.0,78,0.00,,---,0.00,VWS V14.01,2013-04-14 15:09:00,
2013-04-14 11:14:00,41.2,34.5,30.16,South,180,0.0,3.0,77,0.00,,---,0.00,VWS V14.01,2013-04-14 15:14:00,
2013-04-14 11:19:00,41.3,35.0,30.16,SE,136,0.0,3.0,78,0.00,,---,0.00,VWS V14.01,2013-04-14 15:19:00,
2013-04-14 11:24:00,41.6,34.9,30.16,SSE,148,0.0,3.0,77,0.00,,---,0.00,VWS V14.01,2013-04-14 15:24:00,
2013-04-14 11:29:00,41.8,34.8,30.16,South,175,0.0,3.0,76,0.00,,---,0.00,VWS V14.01,2013-04-14 15:29:00,
2013-04-14 11:30:00,41.7,35.0,30.16,SSE,148,0.0,3.0,77,0.00,,---,0.00,VWS V14.01,2013-04-14 15:30:00,
2013-04-14 11:34:00,42.0,35.0,30.16,South,175,0.0,3.0,76,0.00,,---,0.00,VWS V14.01,2013-04-14 15:34:00,
2013-04-14 11:40:00,42.4,35.7,30.16,South,175,0.0,3.0,77,0.00,,---,0.00,VWS V14.01,2013-04-14 15:40:00,
2013-04-14 11:45:00,42.7,34.7,30.16,South,175,0.0,3.0,73,0.00,,---,0.00,VWS V14.01,2013-04-14 15:45:00,
2013-04-14 11:49:00,42.9,34.8,30.16,SSE,149,0.0,3.0,73,0.00,,---,0.00,VWS V14.01,2013-04-14 15:49:00,
2013-04-14 11:55:00,43.2,35.1,30.16,South,170,0.0,3.0,73,0.00,,---,0.00,VWS V14.01,2013-04-14 15:55:00,
2013-04-14 12:00:00,43.5,35.1,30.16,South,170,0.0,3.0,72,0.00,,---,0.00,VWS V14.01,2013-04-14 16:00:00,
2013-04-14 12:05:00,43.6,33.8,30.16,South,184,1.0,4.0,68,0.00,,---,0.00,VWS V14.01,2013-04-14 16:05:00,
2013-04-14 12:10:00,43.7,33.8,30.15,South,184,0.0,4.0,68,0.00,,---,0.00,VWS V14.01,2013-04-14 16:10:00,
2013-04-14 12:15:00,44.0,34.5,30.15,South,184,0.0,4.0,69,0.00,,---,0.00,VWS V14.01,2013-04-14 16:15:00,
2013-04-14 12:20:00,44.2,33.6,30.15,South,189,1.0,4.0,66,0.00,,---,0.00,VWS V14.01,2013-04-14 16:20:00,
2013-04-14 12:25:00,44.2,34.0,30.15,South,190,0.0,4.0,67,0.00,,---,0.00,VWS V14.01,2013-04-14 16:25:00,
2013-04-14 12:30:00,44.5,35.0,30.16,SSE,157,3.0,4.0,69,0.00,,---,0.00,VWS V14.01,2013-04-14 16:30:00,
2013-04-14 12:35:00,45.0,35.5,30.15,SSE,157,2.0,4.0,69,0.00,,---,0.00,VWS V14.01,2013-04-14 16:35:00,
2013-04-14 12:40:00,45.0,34.3,30.16,SSE,155,0.0,4.0,66,0.00,,---,0.00,VWS V14.01,2013-04-14 16:40:00,
2013-04-14 12:45:00,45.1,34.8,30.15,SSE,155,2.0,4.0,67,0.00,,---,0.00,VWS V14.01,2013-04-14 16:45:00,
2013-04-14 12:50:00,45.3,36.1,30.14,SSE,155,0.0,4.0,70,0.00,,---,0.00,VWS V14.01,2013-04-14 16:50:00,
2013-04-14 12:55:00,45.6,35.3,30.14,SSE,155,0.0,4.0,67,0.00,,---,0.00,VWS V14.01,2013-04-14 16:55:00,
2013-04-14 13:00:00,45.8,35.8,30.15,SSE,155,0.0,0.0,68,0.00,,---,0.00,VWS V14.01,2013-04-14 17:00:00,
2013-04-14 13:05:00,45.8,35.5,30.15,SSE,155,0.0,3.0,67,0.00,,---,0.00,VWS V14.01,2013-04-14 17:05:00,
2013-04-14 13:10:00,45.9,35.2,30.14,SSE,155,2.0,3.0,66,0.00,,---,0.00,VWS V14.01,2013-04-14 17:10:00,
2013-04-14 13:15:00,45.9,35.2,30.14,SSE,155,1.0,3.0,66,0.00,,---,0.00,VWS V14.01,2013-04-14 17:15:00,
2013-04-14 13:20:00,46.0,36.0,30.14,SSE,155,0.0,3.0,68,0.00,,---,0.00,VWS V14.01,2013-04-14 17:20:00,
2013-04-14 13:25:00,46.1,35.8,30.14,SE,140,0.0,4.0,67,0.00,,---,0.00,VWS V14.01,2013-04-14 17:25:00,
2013-04-14 13:30:00,46.2,36.2,30.14,SE,140,0.0,0.0,68,0.00,,---,0.00,VWS V14.01,2013-04-14 17:30:00,
2013-04-14 13:35:00,46.3,37.1,30.14,SE,140,0.0,1.0,70,0.00,,---,0.00,VWS V14.01,2013-04-14 17:35:00,
2013-04-14 13:40:00,46.6,36.2,30.14,SE,140,0.0,3.0,67,0.00,,---,0.00,VWS V14.01,2013-04-14 17:40:00,
2013-04-14 13:45:00,46.8,35.7,30.14,SSW,205,0.0,3.0,65,0.00,,---,0.00,VWS V14.01,2013-04-14 17:45:00,
2013-04-14 13:50:00,47.0,36.6,30.14,NNE,18,0.0,3.0,67,0.00,,---,0.00,VWS V14.01,2013-04-14 17:50:00,
2013-04-14 13:55:00,47.4,36.6,30.14,SSE,160,2.0,3.0,66,0.00,,---,0.00,VWS V14.01,2013-04-14 17:55:00,
2013-04-14 14:00:00,47.6,36.8,30.14,SW,232,1.0,3.0,66,0.00,,---,0.00,VWS V14.01,2013-04-14 18:00:00,
2013-04-14 14:05:00,47.7,36.1,30.14,North,5,0.0,5.0,64,0.00,,---,0.00,VWS V14.01,2013-04-14 18:05:00,
2013-04-14 14:10:00,47.6,35.6,30.14,South,170,1.0,5.0,63,0.00,,---,0.00,VWS V14.01,2013-04-14 18:10:00,
2013-04-14 14:15:00,47.7,37.3,30.13,East,89,3.0,5.0,67,0.00,,---,0.00,VWS V14.01,2013-04-14 18:15:00,
2013-04-14 14:20:00,48.1,36.1,30.14,NE,47,2.0,5.0,63,0.00,,---,0.00,VWS V14.01,2013-04-14 18:20:00,
2013-04-14 14:25:00,48.3,38.2,30.13,ENE,78,0.0,5.0,68,0.00,,---,0.00,VWS V14.01,2013-04-14 18:25:00,
2013-04-14 14:30:00,48.7,37.5,30.13,East,88,4.0,4.0,65,0.00,,---,0.00,VWS V14.01,2013-04-14 18:30:00,
2013-04-14 14:35:00,49.1,37.1,30.13,East,97,0.0,4.0,63,0.00,,---,0.00,VWS V14.01,2013-04-14 18:35:00,
2013-04-14 14:40:00,49.4,37.3,30.14,East,90,3.0,4.0,63,0.00,,---,0.00,VWS V14.01,2013-04-14 18:40:00,
2013-04-14 14:45:00,49.5,36.2,30.13,South,180,0.0,4.0,60,0.00,,---,0.00,VWS V14.01,2013-04-14 18:45:00,
2013-04-14 14:50:00,49.7,36.0,30.14,South,190,1.0,4.0,59,0.00,,---,0.00,VWS V14.01,2013-04-14 18:50:00,
2013-04-14 14:55:00,49.8,36.5,30.13,East,92,0.0,4.0,60,0.00,,---,0.00,VWS V14.01,2013-04-14 18:55:00,
2013-04-14 15:00:00,50.3,37.4,30.13,NNE,21,1.0,5.0,61,0.00,,---,0.00,VWS V14.01,2013-04-14 19:00:00,
2013-04-14 15:05:00,50.8,37.8,30.13,NNE,20,0.0,5.0,61,0.00,,---,0.00,VWS V14.01,2013-04-14 19:05:00,
2013-04-14 15:10:00,51.1,37.3,30.12,SSE,164,0.0,5.0,59,0.00,,---,0.00,VWS V14.01,2013-04-14 19:10:00,
2013-04-14 15:15:00,51.7,36.5,30.12,NNW,343,2.0,5.0,56,0.00,,---,0.00,VWS V14.01,2013-04-14 19:15:00,
2013-04-14 15:20:00,51.4,36.7,30.12,NNE,18,0.0,5.0,57,0.00,,---,0.00,VWS V14.01,2013-04-14 19:20:00,
2013-04-14 15:25:00,51.8,37.9,30.12,SE,140,0.0,5.0,59,0.00,,---,0.00,VWS V14.01,2013-04-14 19:25:00,
2013-04-14 15:30:00,52.1,37.8,30.12,SE,134,2.0,2.0,58,0.00,,---,0.00,VWS V14.01,2013-04-14 19:30:00,
2013-04-14 15:35:00,52.3,37.1,30.11,ENE,76,0.0,4.0,56,0.00,,---,0.00,VWS V14.01,2013-04-14 19:35:00,
2013-04-14 15:41:00,52.5,36.8,30.10,SSE,163,0.0,5.0,55,0.00,,---,0.00,VWS V14.01,2013-04-14 19:41:00,
2013-04-14 15:46:00,52.7,37.5,30.10,NNE,26,0.0,7.0,56,0.00,,---,0.00,VWS V14.01,2013-04-14 19:46:00,
2013-04-14 15:51:00,52.9,38.1,30.10,NE,51,2.0,7.0,57,0.00,,---,0.00,VWS V14.01,2013-04-14 19:51:00,
2013-04-14 15:56:00,53.2,38.4,30.10,NNE,27,1.0,7.0,57,0.00,,---,0.00,VWS V14.01,2013-04-14 19:56:00,
2013-04-14 16:00:00,53.4,39.0,30.09,ENE,74,0.0,7.0,58,0.00,,---,0.00,VWS V14.01,2013-04-14 20:00:00,
2013-04-14 16:01:00,53.7,37.9,30.09,SE,142,4.0,5.0,55,0.00,,---,0.00,VWS V14.01,2013-04-14 20:01:00,
2013-04-14 16:06:00,53.7,37.9,30.09,SE,143,0.0,5.0,55,0.00,,---,0.00,VWS V14.01,2013-04-14 20:06:00,
2013-04-14 16:11:00,53.9,39.0,30.08,East,92,0.0,5.0,57,0.00,,---,0.00,VWS V14.01,2013-04-14 20:11:00,
2013-04-14 16:16:00,54.1,38.8,30.09,ENE,57,0.0,5.0,56,0.00,,---,0.00,VWS V14.01,2013-04-14 20:16:00,
2013-04-14 16:21:00,53.9,37.2,30.09,SE,142,0.0,5.0,53,0.00,,---,0.00,VWS V14.01,2013-04-14 20:21:00,
2013-04-14 16:26:00,53.7,37.9,30.08,South,170,0.0,5.0,55,0.00,,---,0.00,VWS V14.01,2013-04-14 20:26:00,
2013-04-14 16:30:00,53.8,38.0,30.08,South,170,0.0,5.0,55,0.00,,---,0.00,VWS V14.01,2013-04-14 20:30:00,
2013-04-14 16:31:00,53.8,38.5,30.08,NE,36,1.0,5.0,56,0.00,,---,0.00,VWS V14.01,2013-04-14 20:31:00,
2013-04-14 16:36:00,53.9,38.6,30.08,ENE,78,0.0,5.0,56,0.00,,---,0.00,VWS V14.01,2013-04-14 20:36:00,
2013-04-14 16:41:00,54.1,38.3,30.08,NNE,24,2.0,6.0,55,0.00,,---,0.00,VWS V14.01,2013-04-14 20:41:00,
2013-04-14 16:46:00,54.2,38.4,30.08,SSE,157,0.0,8.0,55,0.00,,---,0.00,VWS V14.01,2013-04-14 20:46:00,
2013-04-14 16:51:00,54.4,38.6,30.08,ENE,67,1.0,8.0,55,0.00,,---,0.00,VWS V14.01,2013-04-14 20:51:00,
2013-04-14 16:56:00,54.3,37.5,30.08,SE,126,0.0,8.0,53,0.00,,---,0.00,VWS V14.01,2013-04-14 20:56:00,
2013-04-14 17:00:00,54.3,37.5,30.08,SE,126,0.0,8.0,53,0.00,,---,0.00,VWS V14.01,2013-04-14 21:00:00,
2013-04-14 17:02:00,54.3,39.0,30.08,NNE,17,3.0,6.0,56,0.00,,---,0.00,VWS V14.01,2013-04-14 21:02:00,
2013-04-14 17:07:00,54.4,37.6,30.08,SSE,157,1.0,6.0,53,0.00,,---,0.00,VWS V14.01,2013-04-14 21:07:00,
2013-04-14 17:12:00,54.5,38.2,30.08,ESE,115,0.0,6.0,54,0.00,,---,0.00,VWS V14.01,2013-04-14 21:12:00,
2013-04-14 17:17:00,54.6,38.3,30.07,East,100,2.0,6.0,54,0.00,,---,0.00,VWS V14.01,2013-04-14 21:17:00,
2013-04-14 17:22:00,54.6,38.8,30.08,NE,55,0.0,6.0,55,0.00,,---,0.00,VWS V14.01,2013-04-14 21:22:00,
2013-04-14 17:27:00,54.6,38.8,30.08,NNE,28,0.0,6.0,55,0.00,,---,0.00,VWS V14.01,2013-04-14 21:27:00,
2013-04-14 17:30:00,54.6,38.8,30.08,ENE,64,3.0,6.0,55,0.00,,---,0.00,VWS V14.01,2013-04-14 21:30:00,
2013-04-14 17:32:00,54.5,38.2,30.07,NNE,31,1.0,6.0,54,0.00,,---,0.00,VWS V14.01,2013-04-14 21:32:00,
2013-04-14 17:37:00,54.4,38.1,30.07,NE,38,1.0,6.0,54,0.00,,---,0.00,VWS V14.01,2013-04-14 21:37:00,
2013-04-14 17:42:00,54.4,38.1,30.08,SE,124,2.0,6.0,54,0.00,,---,0.00,VWS V14.01,2013-04-14 21:42:00,
2013-04-14 17:47:00,54.2,37.9,30.08,SSE,149,5.0,6.0,54,0.00,,---,0.00,VWS V14.01,2013-04-14 21:47:00,
2013-04-14 17:52:00,54.2,38.4,30.08,SSE,148,0.0,6.0,55,0.00,,---,0.00,VWS V14.01,2013-04-14 21:52:00,
2013-04-14 17:57:00,54.2,37.9,30.08,SSE,148,0.0,6.0,54,0.00,,---,0.00,VWS V14.01,2013-04-14 21:57:00,
2013-04-14 18:00:00,54.2,37.9,30.08,SSE,148,0.0,6.0,54,0.00,,---,0.00,VWS V14.01,2013-04-14 22:00:00,
2013-04-14 18:02:00,54.1,37.8,30.08,SSE,148,0.0,5.0,54,0.00,,---,0.00,VWS V14.01,2013-04-14 22:02:00,
2013-04-14 18:07:00,54.1,37.8,30.08,SSE,151,0.0,8.0,54,0.00,,---,0.00,VWS V14.01,2013-04-14 22:07:00,
2013-04-14 18:12:00,54.0,38.2,30.08,SSE,159,3.0,8.0,55,0.00,,---,0.00,VWS V14.01,2013-04-14 22:12:00,
2013-04-14 18:17:00,54.0,38.2,30.08,SSE,153,3.0,8.0,55,0.00,,---,0.00,VWS V14.01,2013-04-14 22:17:00,
2013-04-14 18:22:00,53.9,38.6,30.08,SSE,153,0.0,8.0,56,0.00,,---,0.00,VWS V14.01,2013-04-14 22:22:00,
2013-04-14 18:27:00,54.0,39.1,30.08,SSE,151,2.0,2.0,57,0.00,,---,0.00,VWS V14.01,2013-04-14 22:27:00,
2013-04-14 18:30:00,53.9,39.0,30.08,SSE,153,1.0,8.0,57,0.00,,---,0.00,VWS V14.01,2013-04-14 22:30:00,
2013-04-14 18:32:00,53.9,38.6,30.07,East,80,2.0,5.0,56,0.00,,---,0.00,VWS V14.01,2013-04-14 22:32:00,
2013-04-14 18:37:00,53.8,38.5,30.07,South,175,0.0,5.0,56,0.00,,---,0.00,VWS V14.01,2013-04-14 22:37:00,
2013-04-14 18:42:00,53.7,38.4,30.07,SSE,154,0.0,5.0,56,0.00,,---,0.00,VWS V14.01,2013-04-14 22:42:00,
2013-04-14 18:47:00,53.6,37.8,30.07,East,98,0.0,5.0,55,0.00,,---,0.00,VWS V14.01,2013-04-14 22:47:00,
2013-04-14 18:52:00,53.5,38.2,30.06,SSE,159,0.0,5.0,56,0.00,,---,0.00,VWS V14.01,2013-04-14 22:52:00,
2013-04-14 18:57:00,53.3,38.5,30.06,SSE,157,0.0,0.0,57,0.00,,---,0.00,VWS V14.01,2013-04-14 22:57:00,
2013-04-14 19:00:00,53.3,38.5,30.06,SSE,157,0.0,5.0,57,0.00,,---,0.00,VWS V14.01,2013-04-14 23:00:00,
2013-04-14 19:02:00,53.2,38.4,30.06,SSE,157,0.0,0.0,57,0.00,,---,0.00,VWS V14.01,2013-04-14 23:02:00,
2013-04-14 19:07:00,53.2,38.4,30.06,SSE,157,0.0,1.0,57,0.00,,---,0.00,VWS V14.01,2013-04-14 23:07:00,
2013-04-14 19:12:00,53.0,38.2,30.06,SSE,152,2.0,3.0,57,0.00,,---,0.00,VWS V14.01,2013-04-14 23:12:00,
2013-04-14 19:17:00,52.8,38.0,30.06,SE,131,1.0,4.0,57,0.00,,---,0.00,VWS V14.01,2013-04-14 23:17:00,
2013-04-14 19:22:00,52.6,38.3,30.06,SE,131,0.0,4.0,58,0.00,,---,0.00,VWS V14.01,2013-04-14 23:22:00,
2013-04-14 19:27:00,52.4,38.1,30.06,SE,131,0.0,0.0,58,0.00,,---,0.00,VWS V14.01,2013-04-14 23:27:00,
2013-04-14 19:30:00,52.4,38.1,30.06,SE,131,0.0,4.0,58,0.00,,---,0.00,VWS V14.01,2013-04-14 23:30:00,
2013-04-14 19:32:00,52.2,38.3,30.06,SE,131,0.0,0.0,59,0.00,,---,0.00,VWS V14.01,2013-04-14 23:32:00,
2013-04-14 19:37:00,52.0,38.1,30.06,South,188,0.0,2.0,59,0.00,,---,0.00,VWS V14.01,2013-04-14 23:37:00,
2013-04-14 19:42:00,51.9,38.0,30.06,South,188,0.0,2.0,59,0.00,,---,0.00,VWS V14.01,2013-04-14 23:42:00,
2013-04-14 19:47:00,51.7,38.3,30.06,South,188,0.0,2.0,60,0.00,,---,0.00,VWS V14.01,2013-04-14 23:47:00,
2013-04-14 19:52:00,51.5,38.5,30.06,South,180,0.0,2.0,61,0.00,,---,0.00,VWS V14.01,2013-04-14 23:52:00,
2013-04-14 19:57:00,51.3,37.9,30.06,South,180,0.0,0.0,60,0.00,,---,0.00,VWS V14.01,2013-04-14 23:57:00,
2013-04-14 20:00:00,51.3,37.9,30.06,South,180,0.0,2.0,60,0.00,,---,0.00,VWS V14.01,2013-04-15 00:00:00,
2013-04-14 20:03:00,51.1,38.1,30.06,South,180,0.0,1.0,61,0.00,,---,0.00,VWS V14.01,2013-04-15 00:03:00,
2013-04-14 20:08:00,50.8,37.8,30.06,South,180,0.0,1.0,61,0.00,,---,0.00,VWS V14.01,2013-04-15 00:08:00,
2013-04-14 20:13:00,50.6,37.7,30.06,South,180,0.0,2.0,61,0.00,,---,0.00,VWS V14.01,2013-04-15 00:13:00,
2013-04-14 20:18:00,50.4,37.9,30.06,South,180,0.0,2.0,62,0.00,,---,0.00,VWS V14.01,2013-04-15 00:18:00,
2013-04-14 20:23:00,50.2,37.7,30.06,South,180,0.0,2.0,62,0.00,,---,0.00,VWS V14.01,2013-04-15 00:23:00,
2013-04-14 20:28:00,50.0,37.5,30.06,SSW,212,0.0,0.0,62,0.00,,---,0.00,VWS V14.01,2013-04-15 00:28:00,
2013-04-14 20:30:00,50.0,37.5,30.06,SSW,212,0.0,3.0,62,0.00,,---,0.00,VWS V14.01,2013-04-15 00:30:00,
2013-04-14 20:33:00,49.8,37.3,30.06,SSE,149,0.0,5.0,62,0.00,,---,0.00,VWS V14.01,2013-04-15 00:33:00,
2013-04-14 20:38:00,49.7,37.2,30.06,SE,138,0.0,5.0,62,0.00,,---,0.00,VWS V14.01,2013-04-15 00:38:00,
2013-04-14 20:43:00,49.7,37.2,30.06,South,180,2.0,5.0,62,0.00,,---,0.00,VWS V14.01,2013-04-15 00:43:00,
2013-04-14 20:48:00,49.6,37.5,30.07,SSE,153,0.0,5.0,63,0.00,,---,0.00,VWS V14.01,2013-04-15 00:48:00,
2013-04-14 20:53:00,49.5,37.4,30.07,SSE,151,0.0,5.0,63,0.00,,---,0.00,VWS V14.01,2013-04-15 00:53:00,
2013-04-14 20:58:00,49.5,37.4,30.07,SSE,153,0.0,1.0,63,0.00,,---,0.00,VWS V14.01,2013-04-15 00:58:00,
2013-04-14 21:00:00,49.5,37.4,30.07,SSE,151,0.0,5.0,63,0.00,,---,0.00,VWS V14.01,2013-04-15 01:00:00,
2013-04-14 21:03:00,49.5,37.4,30.07,SSE,155,0.0,2.0,63,0.00,,---,0.00,VWS V14.01,2013-04-15 01:03:00,
2013-04-14 21:08:00,49.4,37.3,30.07,SSE,153,0.0,3.0,63,0.00,,---,0.00,VWS V14.01,2013-04-15 01:08:00,
2013-04-14 21:13:00,49.4,37.3,30.07,SSE,152,0.0,3.0,63,0.00,,---,0.00,VWS V14.01,2013-04-15 01:13:00,
2013-04-14 21:18:00,49.3,37.2,30.07,SE,129,1.0,4.0,63,0.00,,---,0.00,VWS V14.01,2013-04-15 01:18:00,
2013-04-14 21:23:00,49.1,37.5,30.07,SSE,159,1.0,5.0,64,0.00,,---,0.00,VWS V14.01,2013-04-15 01:23:00,
2013-04-14 21:28:00,49.0,37.4,30.07,SE,140,0.0,3.0,64,0.00,,---,0.00,VWS V14.01,2013-04-15 01:28:00,
2013-04-14 21:30:00,49.0,37.4,30.06,SSE,159,0.0,5.0,64,0.00,,---,0.00,VWS V14.01,2013-04-15 01:30:00,
2013-04-14 21:33:00,48.9,37.3,30.07,SE,140,0.0,3.0,64,0.00,,---,0.00,VWS V14.01,2013-04-15 01:33:00,
2013-04-14 21:38:00,48.7,37.1,30.06,SE,140,0.0,3.0,64,0.00,,---,0.00,VWS V14.01,2013-04-15 01:38:00,
2013-04-14 21:43:00,48.6,37.4,30.06,SE,140,0.0,3.0,65,0.00,,---,0.00,VWS V14.01,2013-04-15 01:43:00,
2013-04-14 21:48:00,48.5,37.3,30.06,SE,140,0.0,3.0,65,0.00,,---,0.00,VWS V14.01,2013-04-15 01:48:00,
2013-04-14 21:53:00,48.4,37.2,30.06,SE,138,1.0,4.0,65,0.00,,---,0.00,VWS V14.01,2013-04-15 01:53:00,
2013-04-14 21:58:00,48.3,37.5,30.05,SE,141,1.0,1.0,66,0.00,,---,0.00,VWS V14.01,2013-04-15 01:58:00,
2013-04-14 22:00:00,48.4,37.6,30.06,SE,141,1.0,4.0,66,0.00,,---,0.00,VWS V14.01,2013-04-15 02:00:00,
2013-04-14 22:03:00,48.2,37.0,30.05,SE,139,0.0,5.0,65,0.00,,---,0.00,VWS V14.01,2013-04-15 02:03:00,
2013-04-14 22:08:00,48.2,37.4,30.05,SE,139,0.0,5.0,66,0.00,,---,0.00,VWS V14.01,2013-04-15 02:08:00,
2013-04-14 22:13:00,48.2,37.8,30.05,SE,139,0.0,5.0,67,0.00,,---,0.00,VWS V14.01,2013-04-15 02:13:00,
2013-04-14 22:18:00,48.1,37.3,30.05,SE,139,1.0,5.0,66,0.00,,---,0.00,VWS V14.01,2013-04-15 02:18:00,
2013-04-14 22:23:00,48.0,37.2,30.04,SE,139,0.0,5.0,66,0.00,,---,0.00,VWS V14.01,2013-04-15 02:23:00,
2013-04-14 22:28:00,48.0,37.2,30.04,SE,139,0.0,0.0,66,0.00,,---,0.00,VWS V14.01,2013-04-15 02:28:00,
2013-04-14 22:30:00,48.0,37.2,30.04,SE,139,0.0,5.0,66,0.00,,---,0.00,VWS V14.01,2013-04-15 02:30:00,
2013-04-14 22:33:00,48.1,37.3,30.04,SE,146,0.0,4.0,66,0.00,,---,0.00,VWS V14.01,2013-04-15 02:33:00,
2013-04-14 22:38:00,48.1,37.3,30.04,SE,127,4.0,4.0,66,0.00,,---,0.00,VWS V14.01,2013-04-15 02:38:00,
2013-04-14 22:43:00,48.2,37.0,30.03,SE,127,0.0,4.0,65,0.00,,---,0.00,VWS V14.01,2013-04-15 02:43:00,
2013-04-14 22:48:00,48.2,37.4,30.03,SE,127,0.0,4.0,66,0.00,,---,0.00,VWS V14.01,2013-04-15 02:48:00,
2013-04-14 22:53:00,48.2,37.0,30.03,SE,128,1.0,4.0,65,0.00,,---,0.00,VWS V14.01,2013-04-15 02:53:00,
2013-04-14 22:58:00,48.3,37.1,30.03,SE,128,0.0,1.0,65,0.00,,---,0.00,VWS V14.01,2013-04-15 02:58:00,
2013-04-14 23:00:00,48.3,37.1,30.03,SE,128,0.0,4.0,65,0.00,,---,0.00,VWS V14.01,2013-04-15 03:00:00,
2013-04-14 23:03:00,48.3,37.1,30.02,SE,145,2.0,4.0,65,0.00,,---,0.00,VWS V14.01,2013-04-15 03:03:00,
2013-04-14 23:08:00,48.6,37.0,30.02,SE,145,0.0,4.0,64,0.00,,---,0.00,VWS V14.01,2013-04-15 03:08:00,
2013-04-14 23:13:00,48.8,37.2,30.02,ESE,123,0.0,6.0,64,0.00,,---,0.00,VWS V14.01,2013-04-15 03:13:00,
2013-04-14 23:18:00,48.9,37.3,30.02,SE,135,0.0,6.0,64,0.00,,---,0.00,VWS V14.01,2013-04-15 03:18:00,
2013-04-14 23:23:00,48.9,37.3,30.02,SSE,153,3.0,6.0,64,0.00,,---,0.00,VWS V14.01,2013-04-15 03:23:00,
2013-04-14 23:28:00,49.2,37.2,30.01,SSW,199,0.0,2.0,63,0.00,,---,0.00,VWS V14.01,2013-04-15 03:28:00,
2013-04-14 23:30:00,49.1,37.1,30.02,SSE,153,0.0,6.0,63,0.00,,---,0.00,VWS V14.01,2013-04-15 03:30:00,
2013-04-14 23:33:00,49.2,37.2,30.01,South,175,0.0,3.0,63,0.00,,---,0.00,VWS V14.01,2013-04-15 03:33:00,
2013-04-14 23:38:00,49.1,37.5,30.01,South,175,1.0,3.0,64,0.00,,---,0.00,VWS V14.01,2013-04-15 03:38:00,
2013-04-14 23:43:00,49.1,37.5,30.01,SE,144,0.0,3.0,64,0.00,,---,0.00,VWS V14.01,2013-04-15 03:43:00,
2013-04-14 23:49:00,49.0,37.4,30.01,SE,144,0.0,3.0,64,0.00,,---,0.00,VWS V14.01,2013-04-15 03:49:00,
2013-04-14 23:54:00,49.0,37.4,30.01,SE,144,0.0,3.0,64,0.00,,---,0.00,VWS V14.01,2013-04-15 03:54:00,
2013-04-14 23:59:00,48.9,37.3,30.01,SE,144,0.0,0.0,64,0.00,,---,0.00,VWS V14.01,2013-04-15 03:59:00,